Flag for Canada

Past Weather in Chilliwack, British Columbia, Canada — Yesterday and Last 2 Weeks

Now
66 °F

Mild.


Feels Like: 66 °F
Forecast: 72 / 62 °F
Wind: 5 mph from Southwest

Location: Agassiz

Current Time: Jul 16, 2020 at 10:58:26 am

Latest Report: Jul 16, 2020 at 10:00 am


Visibility: N/A

Pressure: 29.98 "Hg

Humidity: 78%

Dew Point: 59 °F

Location of ChilliwackLocation

Past Weather in Chilliwack — Graph

°F

Chilliwack Temperature Yesterday

Maximum temperature yesterday: 79 °F (at 4:00 pm)
Minimum temperature yesterday: 53 °F (at 6:00 am)
Average temperature yesterday: 66 °F

High & Low Weather Summary for the Past Weeks

 TemperatureHumidityPressure
High79 °F (Jul 15, 4:00 pm)100% (Jul 3, 2:00 am)30.19 "Hg (Jul 3, 2:00 am)
Low49 °F (Jul 5, 4:00 am)41% (Jul 14, 6:00 pm)29.83 "Hg (Jul 2, 12:00 am)
Average61 °F79%30.05 "Hg
* Reported Jul 1 9:00 am — Jul 16 9:00 am, Chilliwack. Weather by CustomWeather, © 2020

Note: Actual official high and low records may vary slightly from our data, if they occured in-between our weather recording intervals... More about our weather records

Chilliwack Weather History for the Previous 24 Hours

Scroll right to see more
 ConditionsComfort  
Time TempWeatherWind HumidityBarometerVisibility
9:00 am
Thu, Jul 16
65 °FMild.1 mph81%29.97 "HgN/A
8:00 am63 °FMild.2 mph87%29.99 "HgN/A
7:00 am61 °FCool.1 mph84%29.98 "HgN/A
6:00 am61 °FCool.1 mph89%29.97 "HgN/A
5:00 am61 °FCool.1 mph95%29.98 "HgN/A
4:00 am59 °FCool.2 mph97%29.97 "HgN/A
3:00 am58 °FCool.1 mph96%29.98 "HgN/A
2:00 am60 °FCool.No wind94%29.99 "HgN/A
1:00 am62 °FCool.1 mph88%30.00 "HgN/A
12:00 am64 °FMild.1 mph85%30.01 "HgN/A
11:00 pm
Wed, Jul 15
65 °FMild.1 mph80%30.01 "HgN/A
10:00 pm69 °FMild.1 mph71%30.02 "HgN/A
9:00 pm71 °FMild.1 mph64%30.02 "HgN/A
8:00 pm76 °FMild.5 mph54%30.02 "HgN/A
7:00 pm78 °FWarm.7 mph51%30.02 "HgN/A
6:00 pm79 °FWarm.8 mph51%30.03 "HgN/A
5:00 pm79 °FWarm.7 mph46%30.04 "HgN/A
4:00 pm79 °FWarm.6 mph46%30.05 "HgN/A
3:00 pm78 °FWarm.3 mph48%30.07 "HgN/A
2:00 pm77 °FMild.3 mph49%30.07 "HgN/A
1:00 pm75 °FMild.6 mph48%30.09 "HgN/A
12:00 pm73 °FMild.3 mph50%30.09 "HgN/A
11:00 am69 °FMild.3 mph61%30.11 "HgN/A
10:00 am68 °FMild.2 mph68%30.12 "HgN/A
Weather by CustomWeather, © 2020

See weather overview